Year,Month,Day,Hour,Minute,Value (Times are PST for temperature in C)
2012,07,16,00,00,13.30
2012,07,16,00,01,13.30
2012,07,16,00,02,13.30
2012,07,16,00,03,13.30
2012,07,16,00,04,13.30
2012,07,16,00,05,13.30
2012,07,16,00,06,13.30
2012,07,16,00,07,13.30
2012,07,16,00,08,13.30
2012,07,16,00,09,13.30
2012,07,16,00,10,13.30
2012,07,16,00,11,13.30
2012,07,16,00,12,13.30
2012,07,16,00,16,13.20
2012,07,16,00,17,13.20
2012,07,16,00,18,13.20
2012,07,16,00,19,13.10
2012,07,16,00,20,13.10
2012,07,16,00,21,13.10
2012,07,16,00,22,13.10
2012,07,16,00,23,13.10
2012,07,16,00,24,13.10
2012,07,16,00,25,13.10
2012,07,16,00,26,13.10
2012,07,16,00,27,13.10
2012,07,16,00,28,13.10
2012,07,16,00,29,13.10
2012,07,16,00,30,13.10
2012,07,16,00,31,13.10
2012,07,16,00,32,13.00
2012,07,16,00,33,13.00
2012,07,16,00,34,13.00
2012,07,16,00,35,13.00
2012,07,16,00,36,13.00
2012,07,16,00,37,13.00
2012,07,16,00,38,13.00
2012,07,16,00,39,13.00
2012,07,16,00,40,13.00
2012,07,16,00,41,13.00
2012,07,16,00,42,13.00
2012,07,16,00,43,13.00
2012,07,16,00,44,13.00
2012,07,16,00,45,12.90
2012,07,16,00,46,12.90
2012,07,16,00,47,12.90
2012,07,16,00,48,12.90
2012,07,16,00,49,12.90
2012,07,16,00,50,12.90
2012,07,16,00,51,12.90
2012,07,16,00,52,12.90
2012,07,16,00,53,12.90
2012,07,16,00,54,12.90
2012,07,16,00,55,12.90
2012,07,16,00,56,12.90
2012,07,16,00,57,12.90
2012,07,16,00,58,12.90
2012,07,16,00,59,12.90
2012,07,16,01,00,12.90
2012,07,16,01,01,12.90
2012,07,16,01,02,12.80
2012,07,16,01,03,12.80
2012,07,16,01,04,12.80
2012,07,16,01,05,12.80
2012,07,16,01,06,12.80
2012,07,16,01,07,12.80
2012,07,16,01,08,12.80
2012,07,16,01,09,12.80
2012,07,16,01,10,12.80
2012,07,16,01,11,12.80
2012,07,16,01,12,12.80
2012,07,16,01,13,12.80
2012,07,16,01,14,12.80
2012,07,16,01,15,12.80
2012,07,16,01,16,12.80
2012,07,16,01,17,12.80
2012,07,16,01,18,12.80
2012,07,16,01,19,12.80
2012,07,16,01,20,12.80
2012,07,16,01,21,12.80
2012,07,16,01,22,12.80
2012,07,16,01,23,12.70
2012,07,16,01,24,12.70
2012,07,16,01,25,12.70
2012,07,16,01,26,12.70
2012,07,16,01,27,12.70
2012,07,16,01,28,12.70
2012,07,16,01,29,12.60
2012,07,16,01,30,12.60
2012,07,16,01,31,12.60
2012,07,16,01,32,12.60
2012,07,16,01,33,12.60
2012,07,16,01,34,12.60
2012,07,16,01,35,12.60
2012,07,16,01,36,12.60
2012,07,16,01,37,12.60
2012,07,16,01,38,12.60
2012,07,16,01,39,12.60
2012,07,16,01,40,12.60
2012,07,16,01,41,12.50
2012,07,16,01,42,12.50
2012,07,16,01,43,12.50
2012,07,16,01,44,12.50
2012,07,16,01,45,12.50
2012,07,16,01,46,12.50
2012,07,16,01,47,12.50
2012,07,16,01,48,12.50
2012,07,16,01,49,12.50
2012,07,16,01,50,12.50
2012,07,16,01,51,12.50
2012,07,16,01,52,12.50
2012,07,16,01,53,12.40
2012,07,16,01,54,12.40
2012,07,16,01,55,12.40
2012,07,16,01,56,12.40
2012,07,16,01,57,12.40
2012,07,16,01,58,12.40
2012,07,16,01,59,12.40
2012,07,16,02,00,12.40
2012,07,16,02,01,12.40
2012,07,16,02,02,12.40
2012,07,16,02,03,12.40
2012,07,16,02,04,12.40
2012,07,16,02,05,12.30
2012,07,16,02,06,12.30
2012,07,16,02,07,12.30
2012,07,16,02,08,12.30
2012,07,16,02,09,12.30
2012,07,16,02,10,12.30
2012,07,16,02,11,12.30
2012,07,16,02,12,12.30
2012,07,16,02,13,12.30
2012,07,16,02,14,12.30
2012,07,16,02,15,12.30
2012,07,16,02,16,12.30
2012,07,16,02,17,12.30
2012,07,16,02,18,12.30
2012,07,16,02,19,12.30
2012,07,16,02,20,12.30
2012,07,16,02,21,12.30
2012,07,16,02,22,12.30
2012,07,16,02,23,12.30
2012,07,16,02,24,12.30
2012,07,16,02,25,12.30
2012,07,16,02,26,12.30
2012,07,16,02,27,12.30
2012,07,16,02,28,12.30
2012,07,16,02,29,12.30
2012,07,16,02,30,12.20
2012,07,16,02,31,12.20
2012,07,16,02,32,12.20
2012,07,16,02,33,12.20
2012,07,16,02,34,12.20
2012,07,16,02,35,12.20
2012,07,16,02,36,12.20
2012,07,16,02,37,12.10
2012,07,16,02,38,12.10
2012,07,16,02,39,12.10
2012,07,16,02,40,12.10
2012,07,16,02,41,12.10
2012,07,16,02,42,12.10
2012,07,16,02,43,12.10
2012,07,16,02,44,12.10
2012,07,16,02,45,12.10
2012,07,16,02,46,12.10
2012,07,16,02,47,12.00
2012,07,16,02,48,12.00
2012,07,16,02,49,12.00
2012,07,16,02,50,12.00
2012,07,16,02,51,12.00
2012,07,16,02,52,12.00
2012,07,16,02,53,12.00
2012,07,16,02,54,12.00
2012,07,16,02,55,12.00
2012,07,16,02,56,12.00
2012,07,16,02,57,12.00
2012,07,16,02,58,12.00
2012,07,16,02,59,12.00
2012,07,16,03,00,12.00
2012,07,16,03,01,11.90
2012,07,16,03,02,11.90
2012,07,16,03,03,11.90
2012,07,16,03,04,11.90
2012,07,16,03,05,11.90
2012,07,16,03,06,11.90
2012,07,16,03,07,11.90
2012,07,16,03,08,11.90
2012,07,16,03,09,11.90
2012,07,16,03,10,11.90
2012,07,16,03,11,12.00
2012,07,16,03,12,11.90
2012,07,16,03,13,11.90
2012,07,16,03,14,12.00
2012,07,16,03,15,12.00
2012,07,16,03,16,11.90
2012,07,16,03,17,11.90
2012,07,16,03,18,11.90
2012,07,16,03,19,11.90
2012,07,16,03,20,12.00
2012,07,16,03,21,12.00
2012,07,16,03,22,11.90
2012,07,16,03,23,11.90
2012,07,16,03,24,11.90
2012,07,16,03,25,11.90
2012,07,16,03,26,11.90
2012,07,16,03,27,11.90
2012,07,16,03,28,11.90
2012,07,16,03,29,11.90
2012,07,16,03,30,11.90
2012,07,16,03,31,11.90
2012,07,16,03,32,11.90
2012,07,16,03,33,11.90
2012,07,16,03,34,11.90
2012,07,16,03,35,11.90
2012,07,16,03,36,11.90
2012,07,16,03,37,11.90
2012,07,16,03,38,11.80
2012,07,16,03,39,11.80
2012,07,16,03,40,11.80
2012,07,16,03,41,11.80
2012,07,16,03,42,11.80
2012,07,16,03,43,11.80
2012,07,16,03,44,11.80
2012,07,16,03,45,11.80
2012,07,16,03,46,11.80
2012,07,16,03,47,11.80
2012,07,16,03,48,11.80
2012,07,16,03,49,11.80
2012,07,16,03,50,11.80
2012,07,16,03,51,11.80
2012,07,16,03,52,11.80
2012,07,16,03,53,11.80
2012,07,16,03,54,11.80
2012,07,16,03,55,11.80
2012,07,16,03,56,11.80
2012,07,16,03,57,11.80
2012,07,16,03,58,11.80
2012,07,16,03,59,11.80
2012,07,16,04,00,11.80
2012,07,16,04,01,11.80
2012,07,16,04,02,11.80
2012,07,16,04,03,11.80
2012,07,16,04,04,11.80
2012,07,16,04,05,11.80
2012,07,16,04,06,11.80
2012,07,16,04,07,11.80
2012,07,16,04,08,11.80
2012,07,16,04,09,11.80
2012,07,16,04,10,11.80
2012,07,16,04,11,11.80
2012,07,16,04,12,11.80
2012,07,16,04,13,11.80
2012,07,16,04,14,11.80
2012,07,16,04,15,11.80
2012,07,16,04,16,11.80
2012,07,16,04,17,11.80
2012,07,16,04,18,11.80
2012,07,16,04,19,11.80
2012,07,16,04,20,11.80
2012,07,16,04,21,11.70
2012,07,16,04,22,11.70
2012,07,16,04,23,11.70
2012,07,16,04,24,11.70
2012,07,16,04,25,11.70
2012,07,16,04,26,11.70
2012,07,16,04,27,11.70
2012,07,16,04,28,11.70
2012,07,16,04,29,11.70
2012,07,16,04,30,11.70
2012,07,16,04,31,11.70
2012,07,16,04,32,11.60
2012,07,16,04,33,11.60
2012,07,16,04,34,11.60
2012,07,16,04,35,11.60
2012,07,16,04,36,11.60
2012,07,16,04,37,11.60
2012,07,16,04,38,11.60
2012,07,16,04,39,11.60
2012,07,16,04,40,11.60
2012,07,16,04,41,11.60
2012,07,16,04,42,11.60
2012,07,16,04,43,11.60
2012,07,16,04,44,11.60
2012,07,16,04,45,11.60
2012,07,16,04,46,11.60
2012,07,16,04,47,11.60
2012,07,16,04,48,11.60
2012,07,16,04,49,11.60
2012,07,16,04,50,11.60
2012,07,16,04,51,11.60
2012,07,16,04,52,11.60
2012,07,16,04,53,11.60
2012,07,16,04,54,11.60
2012,07,16,04,55,11.60
2012,07,16,04,56,11.60
2012,07,16,04,57,11.60
2012,07,16,04,58,11.60
2012,07,16,04,59,11.60
2012,07,16,05,00,11.60
2012,07,16,05,01,11.60
2012,07,16,05,02,11.60
2012,07,16,05,03,11.60
2012,07,16,05,04,11.60
2012,07,16,05,05,11.60
2012,07,16,05,06,11.60
2012,07,16,05,07,11.60
2012,07,16,05,08,11.60
2012,07,16,05,09,11.60
2012,07,16,05,10,11.60
2012,07,16,05,11,11.60
2012,07,16,05,12,11.60
2012,07,16,05,13,11.60
2012,07,16,05,14,11.60
2012,07,16,05,15,11.60
2012,07,16,05,16,11.60
2012,07,16,05,17,11.60
2012,07,16,05,18,11.60
2012,07,16,05,19,11.60
2012,07,16,05,20,11.60
2012,07,16,05,21,11.60
2012,07,16,05,22,11.60
2012,07,16,05,23,11.60
2012,07,16,05,24,11.60
2012,07,16,05,25,11.60
2012,07,16,05,26,11.60
2012,07,16,05,27,11.60
2012,07,16,05,28,11.60
2012,07,16,05,29,11.60
2012,07,16,05,30,11.60
2012,07,16,05,31,11.60
2012,07,16,05,32,11.60
2012,07,16,05,33,11.60
2012,07,16,05,34,11.60
2012,07,16,05,35,11.70
2012,07,16,05,36,11.70
2012,07,16,05,37,11.70
2012,07,16,05,38,11.70
2012,07,16,05,39,11.70
2012,07,16,05,40,11.70
2012,07,16,05,41,11.70
2012,07,16,05,42,11.70
2012,07,16,05,43,11.70
2012,07,16,05,44,11.70
2012,07,16,05,45,11.70
2012,07,16,05,46,11.80
2012,07,16,05,47,11.80
2012,07,16,05,48,11.80
2012,07,16,05,49,11.80
2012,07,16,05,50,11.80
2012,07,16,05,51,11.80
2012,07,16,05,52,11.80
2012,07,16,05,53,11.80
2012,07,16,05,54,11.80
2012,07,16,05,55,11.80
2012,07,16,05,56,11.80
2012,07,16,05,57,11.80
2012,07,16,05,58,11.80
2012,07,16,05,59,11.80
2012,07,16,06,00,11.80
2012,07,16,06,01,11.80
2012,07,16,06,02,11.90
2012,07,16,06,03,11.90
2012,07,16,06,04,11.90
2012,07,16,06,05,11.90
2012,07,16,06,06,11.90
2012,07,16,06,07,11.90
2012,07,16,06,08,11.90
2012,07,16,06,09,11.90
2012,07,16,06,10,11.90
2012,07,16,06,11,11.90
2012,07,16,06,12,11.90
2012,07,16,06,13,11.90
2012,07,16,06,14,11.90
2012,07,16,06,15,11.90
2012,07,16,06,16,12.00
2012,07,16,06,17,12.00
2012,07,16,06,18,11.90
2012,07,16,06,19,12.00
2012,07,16,06,20,11.90
2012,07,16,06,21,11.90
2012,07,16,06,22,11.90
2012,07,16,06,23,11.90
2012,07,16,06,24,11.90
2012,07,16,06,25,11.90
2012,07,16,06,26,11.90
2012,07,16,06,27,11.90
2012,07,16,06,28,11.90
2012,07,16,06,29,11.90
2012,07,16,06,30,11.90
2012,07,16,06,31,11.90
2012,07,16,06,32,11.90
2012,07,16,06,33,11.90
2012,07,16,06,34,11.90
2012,07,16,06,35,11.90
2012,07,16,06,36,11.90
2012,07,16,06,37,11.90
2012,07,16,06,38,11.90
2012,07,16,06,39,11.90
2012,07,16,06,40,11.90
2012,07,16,06,41,11.90
2012,07,16,06,42,12.00
2012,07,16,06,43,12.00
2012,07,16,06,44,12.00
2012,07,16,06,45,12.00
2012,07,16,06,46,12.00
2012,07,16,06,47,12.00
2012,07,16,06,48,12.00
2012,07,16,06,49,12.00
2012,07,16,06,50,12.00
2012,07,16,06,51,12.00
2012,07,16,06,52,12.10
2012,07,16,06,53,12.10
2012,07,16,06,54,12.10
2012,07,16,06,55,12.20
2012,07,16,06,56,12.20
2012,07,16,06,57,12.20
2012,07,16,06,58,12.20
2012,07,16,06,59,12.20
2012,07,16,07,00,12.30
2012,07,16,07,01,12.30
2012,07,16,07,02,12.30
2012,07,16,07,03,12.30
2012,07,16,07,04,12.30
2012,07,16,07,05,12.30
2012,07,16,07,06,12.30
2012,07,16,07,07,12.30
2012,07,16,07,08,12.30
2012,07,16,07,09,12.30
2012,07,16,07,10,12.30
2012,07,16,07,11,12.30
2012,07,16,07,12,12.30
2012,07,16,07,13,12.30
2012,07,16,07,14,12.30
2012,07,16,07,15,12.30
2012,07,16,07,16,12.30
2012,07,16,07,17,12.40
2012,07,16,07,18,12.40
2012,07,16,07,19,12.40
2012,07,16,07,20,12.40
2012,07,16,07,21,12.50
2012,07,16,07,22,12.50
2012,07,16,07,23,12.50
2012,07,16,07,24,12.60
2012,07,16,07,25,12.60
2012,07,16,07,26,12.70
2012,07,16,07,27,12.70
2012,07,16,07,28,12.80
2012,07,16,07,29,12.80
2012,07,16,07,30,12.80
2012,07,16,07,31,12.90
2012,07,16,07,32,12.90
2012,07,16,07,33,13.00
2012,07,16,07,34,13.00
2012,07,16,07,35,13.10
2012,07,16,07,36,13.20
2012,07,16,07,37,13.20
2012,07,16,07,38,13.30
2012,07,16,07,39,13.30
2012,07,16,07,40,13.40
2012,07,16,07,41,13.50
2012,07,16,07,42,13.50
2012,07,16,07,43,13.60
2012,07,16,07,44,13.60
2012,07,16,07,45,13.60
2012,07,16,07,46,13.70
2012,07,16,07,47,13.70
2012,07,16,07,48,13.70
2012,07,16,07,49,13.70
2012,07,16,07,50,13.80
2012,07,16,07,51,13.80
2012,07,16,07,52,13.80
2012,07,16,07,53,13.90
2012,07,16,07,54,13.90
2012,07,16,07,55,13.90
2012,07,16,07,56,14.00
2012,07,16,07,57,14.00
2012,07,16,07,58,14.10
2012,07,16,07,59,14.10
2012,07,16,08,00,14.20
2012,07,16,08,01,14.30
2012,07,16,08,02,14.40
2012,07,16,08,03,14.50
2012,07,16,08,04,14.60
2012,07,16,08,05,14.70
2012,07,16,08,06,14.70
2012,07,16,08,07,14.80
2012,07,16,08,08,14.80
2012,07,16,08,09,14.80
2012,07,16,08,10,14.80
2012,07,16,08,11,14.80
2012,07,16,08,12,14.90
2012,07,16,08,13,14.90
2012,07,16,08,14,14.90
2012,07,16,08,15,15.00
2012,07,16,08,16,15.00
2012,07,16,08,17,15.00
2012,07,16,08,18,15.00
2012,07,16,08,19,15.00
2012,07,16,08,20,15.00
2012,07,16,08,21,15.00
2012,07,16,08,22,15.00
2012,07,16,08,23,15.00
2012,07,16,08,24,15.00
2012,07,16,08,25,14.90
2012,07,16,08,26,15.00
2012,07,16,08,27,15.00
2012,07,16,08,28,15.10
2012,07,16,08,29,15.10
2012,07,16,08,30,15.20
2012,07,16,08,31,15.20
2012,07,16,08,32,15.30
2012,07,16,08,33,15.30
2012,07,16,08,34,15.30
2012,07,16,08,35,15.40
2012,07,16,08,36,15.40
2012,07,16,08,37,15.40
2012,07,16,08,38,15.30
2012,07,16,08,39,15.30
2012,07,16,08,40,15.30
2012,07,16,08,41,15.30
2012,07,16,08,42,15.20
2012,07,16,08,43,15.10
2012,07,16,08,44,15.10
2012,07,16,08,45,15.00
2012,07,16,08,46,15.00
2012,07,16,08,47,14.90
2012,07,16,08,48,14.90
2012,07,16,08,49,14.90
2012,07,16,08,50,14.90
2012,07,16,08,51,14.90
2012,07,16,08,52,15.00
2012,07,16,08,53,15.00
2012,07,16,08,54,15.10
2012,07,16,08,55,15.10
2012,07,16,08,56,15.10
2012,07,16,08,57,15.20
2012,07,16,08,58,15.30
2012,07,16,08,59,15.30
2012,07,16,09,00,15.50
2012,07,16,09,01,15.50
2012,07,16,09,02,15.60
2012,07,16,09,03,15.60
2012,07,16,09,04,15.70
2012,07,16,09,05,15.80
2012,07,16,09,06,15.80
2012,07,16,09,07,15.90
2012,07,16,09,08,16.00
2012,07,16,09,09,16.10
2012,07,16,09,10,16.10
2012,07,16,09,11,16.10
2012,07,16,09,12,16.10
2012,07,16,09,13,16.10
2012,07,16,09,14,16.10
2012,07,16,09,15,16.10
2012,07,16,09,16,16.10
2012,07,16,09,17,16.10
2012,07,16,09,18,15.90
2012,07,16,09,19,15.90
2012,07,16,09,20,15.90
2012,07,16,09,21,15.90
2012,07,16,09,22,15.90
2012,07,16,09,23,15.90
2012,07,16,09,24,15.90
2012,07,16,09,25,16.00
2012,07,16,09,26,16.10
2012,07,16,09,27,16.10
2012,07,16,09,28,16.20
2012,07,16,09,29,16.30
2012,07,16,09,30,16.30
2012,07,16,09,31,16.40
2012,07,16,09,32,16.40
2012,07,16,09,33,16.50
2012,07,16,09,34,16.60
2012,07,16,09,35,16.60
2012,07,16,09,36,16.60
2012,07,16,09,37,16.70
2012,07,16,09,38,16.70
2012,07,16,09,39,16.80
2012,07,16,09,40,16.90
2012,07,16,09,41,17.00
2012,07,16,09,42,17.10
2012,07,16,09,43,17.20
2012,07,16,09,44,17.30
2012,07,16,09,45,17.30
2012,07,16,09,46,17.30
2012,07,16,09,47,17.30
2012,07,16,09,48,17.40
2012,07,16,09,49,17.40
2012,07,16,09,50,17.40
2012,07,16,09,51,17.40
2012,07,16,09,52,17.40
2012,07,16,09,53,17.40
2012,07,16,09,54,17.40
2012,07,16,09,55,17.40
2012,07,16,09,56,17.40
2012,07,16,09,57,17.40
2012,07,16,09,58,17.40
2012,07,16,09,59,17.30
2012,07,16,10,00,17.30
2012,07,16,10,01,17.20
2012,07,16,10,02,17.10
2012,07,16,10,03,17.10
2012,07,16,10,04,17.00
2012,07,16,10,05,17.00
2012,07,16,10,06,17.00
2012,07,16,10,07,17.00
2012,07,16,10,08,17.00
2012,07,16,10,09,17.00
2012,07,16,10,10,17.00
2012,07,16,10,11,17.00
2012,07,16,10,12,17.10
2012,07,16,10,13,17.10
2012,07,16,10,14,17.20
2012,07,16,10,15,17.20
2012,07,16,10,16,17.20
2012,07,16,10,17,17.20
2012,07,16,10,18,17.20
2012,07,16,10,19,17.20
2012,07,16,10,20,17.10
2012,07,16,10,21,17.10
2012,07,16,10,22,17.10
2012,07,16,10,23,17.20
2012,07,16,10,24,17.20
2012,07,16,10,25,17.20
2012,07,16,10,26,17.30
2012,07,16,10,27,17.30
2012,07,16,10,28,17.30
2012,07,16,10,29,17.30
2012,07,16,10,30,17.30
2012,07,16,10,31,17.40
2012,07,16,10,32,17.40
2012,07,16,10,33,17.40
2012,07,16,10,34,17.30
2012,07,16,10,35,17.20
2012,07,16,10,36,17.10
2012,07,16,10,37,17.00
2012,07,16,10,38,16.90
2012,07,16,10,39,16.80
2012,07,16,10,40,16.70
2012,07,16,10,41,16.60
2012,07,16,10,42,16.50
2012,07,16,10,43,16.40
2012,07,16,10,44,16.30
2012,07,16,10,45,16.30
2012,07,16,10,46,16.30
2012,07,16,10,47,16.40
2012,07,16,10,48,16.40
2012,07,16,10,49,16.50
2012,07,16,10,50,16.60
2012,07,16,10,51,16.70
2012,07,16,10,52,16.80
2012,07,16,10,53,17.00
2012,07,16,10,54,17.20
2012,07,16,10,55,17.30
2012,07,16,10,56,17.50
2012,07,16,10,57,17.50
2012,07,16,10,58,17.60
2012,07,16,10,59,17.60
2012,07,16,11,00,17.70
2012,07,16,11,01,17.70
2012,07,16,11,02,17.70
2012,07,16,11,03,17.80
2012,07,16,11,04,17.90
2012,07,16,11,05,17.90
2012,07,16,11,06,17.90
2012,07,16,11,07,17.90
2012,07,16,11,08,17.90
2012,07,16,11,09,17.90
2012,07,16,11,10,17.90
2012,07,16,11,11,17.90
2012,07,16,11,12,17.90
2012,07,16,11,13,18.00
2012,07,16,11,14,18.10
2012,07,16,11,15,18.20
2012,07,16,11,16,18.20
2012,07,16,11,17,18.40
2012,07,16,11,18,18.50
2012,07,16,11,19,18.60
2012,07,16,11,20,18.80
2012,07,16,11,21,18.90
2012,07,16,11,22,19.00
2012,07,16,11,23,19.20
2012,07,16,11,24,19.30
2012,07,16,11,25,19.60
2012,07,16,11,26,19.80
2012,07,16,11,27,19.90
2012,07,16,11,28,19.90
2012,07,16,11,29,19.90
2012,07,16,11,30,19.80
2012,07,16,11,31,19.80
2012,07,16,11,32,19.80
2012,07,16,11,33,19.70
2012,07,16,11,34,19.60
2012,07,16,11,35,19.60
2012,07,16,11,36,19.50
2012,07,16,11,37,19.50
2012,07,16,11,38,19.60
2012,07,16,11,39,19.70
2012,07,16,11,40,19.80
2012,07,16,11,41,19.80
2012,07,16,11,42,19.80
2012,07,16,11,43,19.80
2012,07,16,11,44,19.70
2012,07,16,11,45,19.80
2012,07,16,11,46,19.80
2012,07,16,11,47,19.80
2012,07,16,11,48,19.80
2012,07,16,11,49,19.80
2012,07,16,11,50,19.90
2012,07,16,11,51,20.00
2012,07,16,11,52,20.10
2012,07,16,11,53,20.20
2012,07,16,11,54,20.30
2012,07,16,11,55,20.40
2012,07,16,11,56,20.50
2012,07,16,11,57,20.50
2012,07,16,11,58,20.60
2012,07,16,11,59,20.60
2012,07,16,12,00,20.70
2012,07,16,12,01,20.70
2012,07,16,12,02,20.80
2012,07,16,12,03,20.90
2012,07,16,12,04,21.00
2012,07,16,12,05,21.10
2012,07,16,12,06,21.20
2012,07,16,12,07,21.20
2012,07,16,12,08,21.30
2012,07,16,12,09,21.50
2012,07,16,12,10,21.60
2012,07,16,12,11,21.60
2012,07,16,12,12,21.70
2012,07,16,12,13,21.70
2012,07,16,12,14,21.70
2012,07,16,12,15,21.70
2012,07,16,12,16,21.60
2012,07,16,12,17,21.60
2012,07,16,12,18,21.60
2012,07,16,12,19,21.60
2012,07,16,12,20,21.50
2012,07,16,12,21,21.30
2012,07,16,12,22,21.30
2012,07,16,12,23,21.30
2012,07,16,12,24,21.30
2012,07,16,12,25,21.30
2012,07,16,12,26,21.40
2012,07,16,12,27,21.40
2012,07,16,12,28,21.40
2012,07,16,12,29,21.50
2012,07,16,12,30,21.60
2012,07,16,12,31,21.60
2012,07,16,12,32,21.60
2012,07,16,12,33,21.60
2012,07,16,12,34,21.50
2012,07,16,12,35,21.40
2012,07,16,12,36,21.30
2012,07,16,12,37,21.30
2012,07,16,12,38,21.20
2012,07,16,12,39,21.00
2012,07,16,12,40,20.90
2012,07,16,12,41,20.80
2012,07,16,12,42,20.80
2012,07,16,12,43,20.80
2012,07,16,12,44,20.80
2012,07,16,12,45,20.80
2012,07,16,12,46,20.90
2012,07,16,12,47,21.00
2012,07,16,12,48,21.00
2012,07,16,12,49,21.10
2012,07,16,12,50,21.10
2012,07,16,12,51,21.20
2012,07,16,12,52,21.20
2012,07,16,12,53,21.20
2012,07,16,12,54,21.20
2012,07,16,12,55,21.10
2012,07,16,12,56,21.00
2012,07,16,12,57,21.00
2012,07,16,12,58,20.90
2012,07,16,12,59,20.90
2012,07,16,13,00,20.90
2012,07,16,13,01,20.90
2012,07,16,13,02,20.90
2012,07,16,13,03,20.90
2012,07,16,13,04,21.00
2012,07,16,13,05,20.90
2012,07,16,13,06,20.90
2012,07,16,13,07,20.80
2012,07,16,13,08,20.90
2012,07,16,13,09,20.90
2012,07,16,13,10,20.90
2012,07,16,13,11,20.90
2012,07,16,13,12,20.90
2012,07,16,13,13,20.80
2012,07,16,13,14,20.80
2012,07,16,13,15,20.70
2012,07,16,13,16,20.70
2012,07,16,13,17,20.60
2012,07,16,13,18,20.50
2012,07,16,13,19,20.40
2012,07,16,13,20,20.20
2012,07,16,13,21,20.20
2012,07,16,13,22,20.20
2012,07,16,13,23,20.20
2012,07,16,13,24,20.20
2012,07,16,13,25,20.20
2012,07,16,13,26,20.10
2012,07,16,13,27,20.00
2012,07,16,13,28,19.90
2012,07,16,13,29,19.80
2012,07,16,13,30,19.80
2012,07,16,13,31,19.70
2012,07,16,13,32,19.60
2012,07,16,13,33,19.60
2012,07,16,13,34,19.60
2012,07,16,13,35,19.70
2012,07,16,13,36,19.80
2012,07,16,13,37,19.90
2012,07,16,13,38,20.00
2012,07,16,13,39,20.10
2012,07,16,13,40,20.20
2012,07,16,13,41,20.40
2012,07,16,13,42,20.40
2012,07,16,13,43,20.40
2012,07,16,13,44,20.30
2012,07,16,13,45,20.30
2012,07,16,13,46,20.30
2012,07,16,13,47,20.30
2012,07,16,13,48,20.30
2012,07,16,13,49,20.40
2012,07,16,13,50,20.50
2012,07,16,13,51,20.60
2012,07,16,13,52,20.60
2012,07,16,13,53,20.60
2012,07,16,13,54,20.50
2012,07,16,13,55,20.50
2012,07,16,13,56,20.50
2012,07,16,13,57,20.50
2012,07,16,13,58,20.50
2012,07,16,13,59,20.50
2012,07,16,14,00,20.60
2012,07,16,14,01,20.80
2012,07,16,14,02,20.90
2012,07,16,14,03,21.00
2012,07,16,14,04,21.00
2012,07,16,14,05,21.10
2012,07,16,14,06,21.10
2012,07,16,14,07,21.20
2012,07,16,14,08,21.20
2012,07,16,14,09,21.20
2012,07,16,14,10,21.20
2012,07,16,14,11,21.20
2012,07,16,14,12,21.30
2012,07,16,14,13,21.30
2012,07,16,14,14,21.30
2012,07,16,14,15,21.30
2012,07,16,14,16,21.30
2012,07,16,14,17,21.30
2012,07,16,14,18,21.30
2012,07,16,14,19,21.30
2012,07,16,14,20,21.30
2012,07,16,14,21,21.20
2012,07,16,14,22,21.20
2012,07,16,14,23,21.20
2012,07,16,14,24,21.20
2012,07,16,14,25,21.20
2012,07,16,14,26,21.20
2012,07,16,14,27,21.20
2012,07,16,14,28,21.20
2012,07,16,14,29,21.20
2012,07,16,14,30,21.20
2012,07,16,14,31,21.20
2012,07,16,14,32,21.10
2012,07,16,14,33,21.10
2012,07,16,14,34,21.20
2012,07,16,14,35,21.30
2012,07,16,14,36,21.30
2012,07,16,14,37,21.30
2012,07,16,14,38,21.30
2012,07,16,14,39,21.30
2012,07,16,14,40,21.40
2012,07,16,14,41,21.40
2012,07,16,14,42,21.50
2012,07,16,14,43,21.60
2012,07,16,14,44,21.50
2012,07,16,14,45,21.40
2012,07,16,14,46,21.40
2012,07,16,14,47,21.40
2012,07,16,14,48,21.40
2012,07,16,14,49,21.40
2012,07,16,14,50,21.40
2012,07,16,14,51,21.50
2012,07,16,14,52,21.60
2012,07,16,14,53,21.60
2012,07,16,14,54,21.60
2012,07,16,14,55,21.60
2012,07,16,14,56,21.60
2012,07,16,14,57,21.50
2012,07,16,14,58,21.40
2012,07,16,14,59,21.40
2012,07,16,15,00,21.40
2012,07,16,15,01,21.30
2012,07,16,15,02,21.40
2012,07,16,15,03,21.40
2012,07,16,15,04,21.40
2012,07,16,15,05,21.40
2012,07,16,15,06,21.40
2012,07,16,15,07,21.40
2012,07,16,15,08,21.40
2012,07,16,15,09,21.40
2012,07,16,15,10,21.50
2012,07,16,15,11,21.60
2012,07,16,15,12,21.60
2012,07,16,15,13,21.60
2012,07,16,15,14,21.70
2012,07,16,15,15,21.70
2012,07,16,15,16,21.70
2012,07,16,15,17,21.70
2012,07,16,15,18,21.80
2012,07,16,15,19,21.70
2012,07,16,15,20,21.70
2012,07,16,15,21,21.70
2012,07,16,15,22,21.60
2012,07,16,15,23,21.70
2012,07,16,15,24,21.70
2012,07,16,15,25,21.80
2012,07,16,15,26,21.80
2012,07,16,15,27,21.80
2012,07,16,15,28,21.80
2012,07,16,15,29,21.80
2012,07,16,15,30,21.70
2012,07,16,15,31,21.70
2012,07,16,15,32,21.70
2012,07,16,15,33,21.60
2012,07,16,15,34,21.60
2012,07,16,15,35,21.60
2012,07,16,15,36,21.60
2012,07,16,15,37,21.60
2012,07,16,15,38,21.50
2012,07,16,15,39,21.50
2012,07,16,15,40,21.50
2012,07,16,15,41,21.50
2012,07,16,15,42,21.40
2012,07,16,15,43,21.40
2012,07,16,15,44,21.30
2012,07,16,15,45,21.30
2012,07,16,15,46,21.40
2012,07,16,15,47,21.40
2012,07,16,15,48,21.40
2012,07,16,15,49,21.50
2012,07,16,15,50,21.60
2012,07,16,15,51,21.60
2012,07,16,15,52,21.60
2012,07,16,15,53,21.60
2012,07,16,15,54,21.60
2012,07,16,15,55,21.60
2012,07,16,15,56,21.60
2012,07,16,15,57,21.60
2012,07,16,15,58,21.60
2012,07,16,15,59,21.60
2012,07,16,16,00,21.60
2012,07,16,16,01,21.70
2012,07,16,16,02,21.80
2012,07,16,16,03,21.80
2012,07,16,16,04,21.90
2012,07,16,16,05,21.90
2012,07,16,16,06,21.90
2012,07,16,16,07,21.80
2012,07,16,16,08,21.80
2012,07,16,16,09,21.70
2012,07,16,16,10,21.70
2012,07,16,16,11,21.70
2012,07,16,16,12,21.70
2012,07,16,16,13,21.80
2012,07,16,16,14,21.90
2012,07,16,16,15,22.00
2012,07,16,16,16,22.10
2012,07,16,16,17,22.20
2012,07,16,16,18,22.30
2012,07,16,16,19,22.30
2012,07,16,16,20,22.30
2012,07,16,16,21,22.40
2012,07,16,16,22,22.40
2012,07,16,16,23,22.40
2012,07,16,16,24,22.50
2012,07,16,16,25,22.50
2012,07,16,16,26,22.50
2012,07,16,16,27,22.60
2012,07,16,16,28,22.60
2012,07,16,16,29,22.60
2012,07,16,16,30,22.70
2012,07,16,16,31,22.70
2012,07,16,16,32,22.80
2012,07,16,16,33,22.80
2012,07,16,16,34,22.80
2012,07,16,16,35,22.90
2012,07,16,16,36,22.80
2012,07,16,16,37,22.80
2012,07,16,16,38,22.70
2012,07,16,16,39,22.60
2012,07,16,16,40,22.60
2012,07,16,16,41,22.50
2012,07,16,16,42,22.40
2012,07,16,16,43,22.40
2012,07,16,16,44,22.30
2012,07,16,16,45,22.30
2012,07,16,16,46,22.40
2012,07,16,16,47,22.40
2012,07,16,16,48,22.50
2012,07,16,16,49,22.50
2012,07,16,16,50,22.60
2012,07,16,16,51,22.60
2012,07,16,16,52,22.50
2012,07,16,16,53,22.50
2012,07,16,16,54,22.50
2012,07,16,16,55,22.50
2012,07,16,16,56,22.50
2012,07,16,16,57,22.50
2012,07,16,16,58,22.50
2012,07,16,16,59,22.50
2012,07,16,17,00,22.60
2012,07,16,17,01,22.60
2012,07,16,17,02,22.60
2012,07,16,17,03,22.50
2012,07,16,17,04,22.50
2012,07,16,17,05,22.50
2012,07,16,17,06,22.50
2012,07,16,17,07,22.40
2012,07,16,17,08,22.40
2012,07,16,17,09,22.30
2012,07,16,17,10,22.20
2012,07,16,17,11,22.20
2012,07,16,17,12,22.10
2012,07,16,17,13,22.20
2012,07,16,17,14,22.30
2012,07,16,17,15,22.30
2012,07,16,17,16,22.40
2012,07,16,17,17,22.40
2012,07,16,17,18,22.30
2012,07,16,17,19,22.30
2012,07,16,17,20,22.30
2012,07,16,17,21,22.20
2012,07,16,17,22,22.10